Voltar ao catálogo

SL-8 R/B

AtivoLEO
NORAD 12150·ROCKET BODY·🇷🇺 Russia

Lançado Jan 21, 1981 de Plesetsk Cosmodrome

Loading…

Próximas Passagens (próximas 24 horas)

TLE

AtualizadoSource: Space-Track

Época: Sep 14, 2026, 14:28 UTC

1 12150U 81006B   26257.60319075 -.00000012  00000-0  69284-4 0  9994
2 12150  65.8225 335.1320 0055067 337.1226  22.7385 13.77488903293857

Acompanhe SL-8 R/B em tempo real com AllMySat

Download on the App Store